Location: Olsztyn
(53.7767°N, 20.4765°E)
Time: 03:51:28
(UTC+01:00)

deb Explorer IX - All Passes

Search period start: 28 January 2022 00:00
Search period end: 07 February 2022 00:00
Orbit: 544 x 1082 km, 38.8° (Epoch: 27 January)

Date Brightness Start Highest point End Pass type
(mag) Time Alt. Az. Time Alt. Az. Time Alt. Az.
28 Jan - 13:12:23 10° SSW 13:13:38 11° S 13:14:52 10° SSE daylight
29 Jan - 12:46:16 10° SSW 12:47:48 12° S 12:49:18 10° SSE daylight
30 Jan - 12:20:09 10° SSW 12:21:57 12° S 12:23:42 10° SSE daylight
31 Jan - 11:54:00 10° SSW 11:56:05 13° S 11:58:06 10° SSE daylight
01 Feb - 11:27:49 10° SSW 11:30:13 13° S 11:32:28 10° SSE daylight
02 Feb - 11:01:39 10° SSW 11:04:18 14° S 11:06:48 10° SSE daylight
02 Feb - 12:48:50 10° SSW 12:49:40 10° SSW 12:50:29 10° S daylight
03 Feb - 08:51:50 10° S 08:52:55 11° SSE 08:53:58 10° SSE daylight
03 Feb - 10:35:27 10° SSW 10:38:23 15° S 10:41:08 10° SE daylight
03 Feb - 12:22:21 10° SW 12:23:46 11° SSW 12:25:09 10° S daylight
04 Feb - 08:25:22 10° S 08:26:57 11° SSE 08:28:27 10° SE daylight
04 Feb - 10:09:14 10° SW 10:12:27 16° S 10:15:26 10° SE daylight
04 Feb - 11:55:59 10° SW 11:57:51 12° SSW 11:59:40 10° S daylight
05 Feb - 07:59:01 10° S 08:00:57 12° SSE 08:02:50 10° SE daylight
05 Feb - 09:43:01 10° SW 09:46:29 16° S 09:49:42 10° SE daylight
05 Feb - 11:29:38 10° SW 11:31:55 13° SSW 11:34:05 10° S daylight
06 Feb - 07:32:41 10° S 07:34:57 12° SSE 07:37:07 10° SE daylight
06 Feb - 09:16:47 10° SW 09:20:30 17° S 09:23:56 10° SE daylight
06 Feb - 11:03:19 10° SW 11:05:58 14° SSW 11:08:28 10° SSE daylight
